Location: G�migny
(47.9646°N, 1.6950°E)
Time: 15:08:33
(UTC+00:00)

Cosmos 1000 Rocket - Pass Details

Date: 23 October 2019
Orbit: 955 x 991 km, 82.9° (Epoch: 16 November)

Event Time Altitude Azimuth Distance (km) Brightness Sun altitude
Rises 18:29:10 0° 173° (S) 3,640 7.4 -17.1°
Reaches altitude 10° 18:31:41 10° 170° (S) 2,703 6.7 -17.5°
Maximum altitude 18:37:44 59° 93° (E) 1,121 4.5 -18.6°
Drops below altitude 10° 18:43:53 10° 16° (NNE) 2,746 6.7 -19.6°
Sets 18:46:27 0° 12° (NNE) 3,703 7.5 -20.0°
